Flag for Honduras Weather past 2 weeks in La Ceiba, Honduras

Now
82 °F

Scattered clouds.


Feels Like: 87 °F
Forecast: 68 / 82 °F
Wind: 7 mph from North

Location: La Ceiba Airport

Current Time: Dec 21, 2014 at 12:57:06 PM

Latest Report: Dec 21, 2014 at 12:00 PM


Visibility: N/A

Pressure: 29.98 "Hg

Humidity: 70%

Dew point: 72 °F

Location of La CeibaLocation

Historic Weather in La Ceiba — Graph

°F

La Ceiba temperature yesterday

Maximum temperature yesterday: 84 °F (at 10:00 AM)
Minimum temperature yesterday: 70 °F (at 1:00 AM)
Average temperature yesterday: 76 °F

Past Weeks' High & Low Weather Summary

 TemperatureHumidityPressure
High84 °F (Dec 20, 10:00 AM)100% (Dec 10, 1:00 AM)30.15 "Hg (Dec 10, 1:00 AM)
Low64 °F (Dec 13, 4:00 AM)65% (Dec 17, 10:00 AM)29.89 "Hg (Dec 19, 3:00 PM)
Average73 °F86%30.03 "Hg
* Reported Dec 6 11:00 AM — Dec 21 11:00 AM, La Ceiba, Weather by CustomWeather, © 2014

Note: Actual official high and low records may vary slightly from our data, if they occured in-between our weather recording intervals... More about our weather records

Advertising

La Ceiba weather history for previous 24 hours

 ConditionsComfort  
Time TempWeatherWind HumidityBarometerVisibility
11:00 AM
Dec 21
82 °FScattered clouds.5 mph70%30.01 "HgN/A
10:00 AM82 °FPassing clouds.3 mph70%30.01 "HgN/A
9:00 AM81 °FPassing clouds.2 mph70%30.01 "HgN/A
8:00 AM75 °FPassing clouds.2 mph83%30.01 "HgN/A
7:00 AM68 °FScattered clouds.No wind94%29.98 "HgN/A
6:00 AM66 °FPassing clouds.No wind94%29.98 "HgN/A
5:00 AM66 °FPartly cloudy.No wind94%29.95 "HgN/A
2:00 AM70 °FPassing clouds.No wind88%29.98 "HgN/A
1:00 AM70 °FPassing clouds.No wind88%N/AN/A
12:00 AM70 °FPassing clouds.No wind88%30.01 "HgN/A
11:00 PM
Dec 20
72 °FPassing clouds.3 mph88%30.01 "HgN/A
10:00 PM72 °FPassing clouds.No wind88%30.01 "HgN/A
9:00 PM73 °FPassing clouds.No wind83%30.01 "HgN/A
8:00 PM75 °FPartly cloudy.No wind83%29.98 "HgN/A
7:00 PM77 °FPassing clouds.No wind79%29.95 "HgN/A
6:00 PM77 °FPassing clouds.No wind79%29.95 "HgN/A
5:00 PM81 °FScattered clouds.3 mph74%29.92 "HgN/A
4:00 PM81 °FScattered clouds.6 mph74%29.92 "HgN/A
3:00 PM82 °FScattered clouds.2 mph74%29.92 "HgN/A
2:00 PM82 °FScattered clouds.3 mph74%29.92 "HgN/A
1:00 PM82 °FScattered clouds.3 mph70%29.95 "HgN/A
12:00 PM84 °FScattered clouds.6 mph66%29.98 "HgN/A
Weather by CustomWeather, © 2014

See weather overviewHow to use our weather pages